Poughkeepsie, NY

5:11 PM EDT on July 26, 2017 (GMT -0400)
Dutchess County

Weather History for KPOU - March, 2013

Change the Weather History Date:

Thursday, March 28, 2013

  Actual Average Record
Temperature  
Mean Temperature 40 °F 41 °F  
Max Temperature 49 °F 53 °F 83 °F (1989)
Min Temperature 30 °F 30 °F 13 °F (1956)
Degree Days  
Heating Degree Days 25 24  
Month to date heating degree days 798 805  
Since 1 July heating degree days 4919 5376  
Cooling Degree Days 0 0  
Month to date cooling degree days 0 0  
Year to date cooling degree days 0 0  
Moisture  
Dew Point 30 °F    
Average Humidity 67    
Maximum Humidity 85    
Minimum Humidity 49    
Precipitation  
Precipitation T in 0.12 in 2.07 in (2005)
Month to date precipitation 1.31 3.22  
Year to date precipitation 4.97 8.96  
Sea Level Pressure  
Sea Level Pressure 30.00 in    
Wind  
Wind Speed 5 mph (NNW)    
Max Wind Speed 16 mph    
Max Gust Speed 20 mph    
Visibility 10 miles    
Events      
T = Trace of Precipitation, MM = Missing Value Source: NWS Daily Summary

Daily Weather History Graph

Daily Weather History Graph

Search for Another Location

Airport or City:

Trip Planner

Search our weather history database for the weather conditions in past years. The results will help you decide how hot, cold, wet, or windy it might be!

Date:

Astronomy

Mar. 28, 2013 Rise Set
Actual Time 6:44 AM EDT 7:16 PM EDT
Civil Twilight 6:17 AM EDT 7:44 PM EDT
Nautical Twilight 5:44 AM EDT 8:17 PM EDT
Astronomical Twilight 5:10 AM EDT 8:51 PM EDT
Moon 9:07 PM EDT (3/28) 7:09 AM EDT (3/28)
Length of Visible Light 13h 27m
Length of Day
12h 31m
Full, 98% of the Moon is Illuminated
Mar 28
Full
Apr 3
Last Quarter
Apr 10
New
Apr 18
First Quarter
Apr 25
Full

Hourly Weather History & Observations

Time (EDT) Temp. Windchill Dew Point Humidity Pressure Visibility Wind Dir Wind Speed Gust Speed Precip Events Conditions
12:53 AM 32.0 °F - 25.0 °F 75% 29.94 in 10.0 mi Calm Calm - N/A   Scattered Clouds
1:53 AM 33.1 °F - 26.1 °F 75% 29.94 in 10.0 mi Calm Calm - N/A   Overcast
2:53 AM 33.1 °F - 27.0 °F 78% 29.94 in 10.0 mi Calm Calm - N/A   Overcast
3:53 AM 33.1 °F - 27.0 °F 78% 29.94 in 10.0 mi Calm Calm - N/A   Overcast
4:53 AM 34.0 °F - 27.0 °F 75% 29.94 in 10.0 mi Calm Calm - N/A   Overcast
5:53 AM 34.0 °F - 28.0 °F 79% 29.95 in 10.0 mi Calm Calm - N/A   Overcast
6:53 AM 30.9 °F - 27.0 °F 85% 29.96 in 10.0 mi Calm Calm - N/A   Scattered Clouds
7:53 AM 33.1 °F - 28.0 °F 82% 29.98 in 10.0 mi Calm Calm - N/A   Overcast
8:53 AM 37.0 °F - 30.0 °F 76% 29.99 in 10.0 mi Calm Calm - N/A   Overcast
9:53 AM 43.0 °F 37.7 °F 30.0 °F 60% 30.00 in 10.0 mi North 9.2 mph - N/A   Overcast
10:53 AM 42.1 °F 35.7 °F 32.0 °F 67% 30.01 in 9.0 mi North 11.5 mph - N/A   Overcast
11:23 AM 42.8 °F 36.2 °F 32.0 °F 66% 30.02 in 10.0 mi NNW 12.7 mph - N/A   Overcast
11:32 AM 42.8 °F 36.6 °F 32.0 °F 66% 30.02 in 10.0 mi NNE 11.5 mph - N/A   Overcast
11:43 AM 44.6 °F 38.8 °F 33.8 °F 66% 30.02 in 9.0 mi NNW 11.5 mph 18.4 mph N/A   Overcast
11:51 AM 42.8 °F 36.6 °F 33.8 °F 70% 30.02 in 10.0 mi North 11.5 mph - 0.00 in   Overcast
11:53 AM 44.1 °F 38.6 °F 32.0 °F 63% 30.01 in 10.0 mi North 10.4 mph - 0.00 in   Overcast
12:24 PM 44.6 °F 41.4 °F 33.8 °F 66% 30.02 in 8.0 mi NNW 5.8 mph - N/A   Overcast
12:53 PM 45.0 °F 39.7 °F 32.0 °F 60% 30.01 in 10.0 mi North 10.4 mph 18.4 mph N/A   Overcast
1:12 PM 44.6 °F 39.2 °F 33.8 °F 66% 30.01 in 10.0 mi NNW 10.4 mph - N/A   Overcast
1:53 PM 46.9 °F - 30.9 °F 54% 30.00 in 10.0 mi North 10.4 mph 18.4 mph N/A   Overcast
2:53 PM 48.0 °F - 30.9 °F 52% 30.00 in 10.0 mi North 12.7 mph 19.6 mph N/A   Overcast
3:53 PM 48.0 °F - 30.0 °F 50% 29.99 in 10.0 mi North 11.5 mph - N/A   Overcast
4:53 PM 48.0 °F - 30.0 °F 50% 30.00 in 10.0 mi North 8.1 mph - N/A   Overcast
5:53 PM 46.9 °F - 28.9 °F 50% 30.01 in 10.0 mi NNW 10.4 mph - N/A   Overcast
6:53 PM 46.0 °F 42.5 °F 30.0 °F 54% 30.04 in 10.0 mi NW 6.9 mph - N/A   Overcast
7:53 PM 45.0 °F 40.6 °F 30.0 °F 56% 30.05 in 10.0 mi NW 8.1 mph - N/A   Overcast
8:53 PM 39.9 °F 37.8 °F 30.0 °F 68% 30.06 in 10.0 mi WSW 3.5 mph - N/A   Mostly Cloudy
9:53 PM 42.1 °F 40.2 °F 30.9 °F 65% 30.07 in 10.0 mi SW 3.5 mph - N/A   Overcast
10:53 PM 39.0 °F - 30.9 °F 73% 30.09 in 10.0 mi Calm Calm - N/A   Overcast
11:53 PM 44.1 °F 40.8 °F 30.0 °F 58% 30.09 in 10.0 mi NW 5.8 mph - N/A   Overcast